Tracking 25686 objects as of 25-May-2022
HD Live streaming from Space Station
objects crossing your sky now

CZ-4B DEB

Track CZ-4B DEB now!
10-day predictions


NORAD ID: 40530
Int'l Code: 2013-057C
Perigee: 601.9 km
Apogee: 913.3 km
Inclination: 75.1 °
Period: 99.8 minutes
Semi major axis: 7128 km
RCS: Unknown
Launch date: October 25, 2013
Source: People's Republic of China (PRC)
Launch site: Jiuquan Satellite Launch Center, China (JSC)

Note: This is SATELLITE DEBRIS
aabbcc
Your satellite tracking list
Your tracking list is empty




NASA's NSSDC Master Catalog

Two Line Element Set (TLE):
1 40530U 13057C   22143.88232152  .00001820  00000-0  41829-3 0  9999
2 40530  75.0609 355.2117 0218412 307.0039  51.1308 14.42431370447715
Source of the keplerian elements: AFSPC